This demonstration page uses our WeatherBlox Daily Observations layout. Learn more.

Left ArrowRight Arrow

Hourly Observations for March 22, 2020

Temp ( °F °C ) Dew Point ( °F °C ) Humidity (%) Winds ( mph kmh ) Pressure ( in mb ) Visibility ( mi km ) Precip ( " mm )
12:51 am 00:51 Clear 48 8.9 38 3.3 68 68 E 7 11 30.02 1017 10 16 0.00 0.00
1:51 am 01:51 Clear 50 10 37 2.8 61 61 Calm 30.01 1016 10 16 0.00 0.00
2:51 am 02:51 Clear 46 7.8 38 3.3 73 73 Calm 30.01 1016 10 16 0.00 0.00
3:51 am 03:51 Clear 45 7.2 39 3.9 80 80 Calm 30.01 1016 10 16 0.00 0.00
4:51 am 04:51 Clear 44 6.7 39 3.9 83 83 ESE 6 9 30.03 1017 10 16 0.00 0.00
5:51 am 05:51 Clear 43 6.1 38 3.3 82 82 ESE 3 6 30.04 1017 10 16 0.00 0.00
6:51 am 06:51 Sunny 43 6.1 39 3.9 86 86 Calm 30.07 1018 10 16 0.00 0.00
7:51 am 07:51 Sunny 49 9.4 40 4.4 71 71 SE 3 6 30.08 1019 10 16 0.00 0.00
8:51 am 08:51 Sunny 54 12.2 37 2.8 53 53 Calm 30.08 1019 10 16 0.00 0.00
9:51 am 09:51 Sunny 57 13.9 36 2.2 45 45 VRB 3 6 30.08 1019 10 16 0.00 0.00
10:51 am 10:51 Sunny 61 16.1 36 2.2 39 39 S 5 7 30.07 1018 10 16 0.00 0.00
11:51 am 11:51 Sunny 63 17.2 35 1.7 35 35 Calm 30.06 1018 10 16 0.00 0.00
12:51 pm 12:51 Sunny 66 18.9 31 -0.6 27 27 Calm 30.03 1017 10 16 0.00 0.00
1:51 pm 13:51 Sunny 70 21.1 30 -1.1 23 23 undefined N/A 29.98 1015 10 16 0.00 0.00
2:51 pm 14:51 Sunny 71 21.7 29 -1.7 21 21 ENE 6 9 29.96 1015 10 16 0.00 0.00
3:51 pm 15:51 Sunny 70 21.1 27 -2.8 20 20 ENE 3 6 29.94 1014 10 16 0.00 0.00
4:51 pm 16:51 Sunny 72 22.2 29 -1.7 20 20 Calm 29.95 1014 10 16 0.00 0.00
5:51 pm 17:51 Sunny 69 20.6 29 -1.7 22 22 WNW 8 13 29.95 1014 10 16 0.00 0.00
6:51 pm 18:51 Clear 64 17.8 33 0.6 32 32 WNW 6 9 29.96 1015 10 16 0.00 0.00
7:51 pm 19:51 Clear 62 16.7 38 3.3 41 41 WNW 6 9 29.98 1015 10 16 0.00 0.00
8:51 pm 20:51 Clear 59 15 41 5 51 51 W 7 11 29.97 1015 10 16 0.00 0.00
9:51 pm 21:51 Clear 56 13.3 43 6.1 62 62 Calm 29.97 1015 10 16 0.00 0.00
10:51 pm 22:51 Clear 55 12.8 43 6.1 64 64 Calm 29.98 1015 10 16 0.00 0.00
11:51 pm 23:51 Clear 55 12.8 45 7.2 69 69 E 5 7 29.96 1015 10 16 0.00 0.00

Powered by AerisWeather